| time (UTC) | temp C | wind direction | speed KPH | gust KPH | rain 1hr cm | rain 24hr cm | rain mn cm | humidity % | barometer mb |
| 20260510001926 | 21 | 74 | 0.0 | 0.0 | 0.00 | 0.00 | 0.00 | 61 | 1004.9 |
| 20260510001651 | 21 | 74 | 0.0 | 0.0 | 0.00 | 0.00 | 0.00 | 59 | 1005.0 |
| 20260510000926 | 21 | 74 | 0.0 | 0.0 | 0.00 | 0.00 | 0.00 | 59 | 1004.9 |
| 20260510000425 | 22 | 74 | 0.0 | 0.0 | 0.00 | 0.00 | 0.00 | 58 | 1004.7 |
| 20260509235926 | 22 | 74 | 0.0 | 1.6 | 0.00 | 0.00 | 0.00 | 58 | 1004.7 |
| 20260509235425 | 22 | 74 | 0.0 | 1.6 | 0.00 | 0.00 | 0.00 | 56 | 1004.8 |
| 20260509234926 | 22 | 76 | 0.0 | 0.0 | 0.00 | 0.00 | 0.00 | 56 | 1004.7 |
| 20260509234640 | 23 | 76 | 0.0 | 0.0 | 0.00 | 0.00 | 0.00 | 54 | 1004.6 |
| 20260509233925 | 23 | 76 | 0.0 | 0.0 | 0.00 | 0.00 | 0.00 | 53 | 1004.6 |
| 20260509233423 | 23 | 76 | 0.0 | 1.6 | 0.00 | 0.00 | 0.00 | 53 | 1004.7 |
| 20260509232923 | 23 | 76 | 0.0 | 1.6 | 0.00 | 0.00 | 0.00 | 52 | 1004.6 |
| 20260509232424 | 23 | 49 | 0.0 | 3.2 | 0.00 | 0.00 | 0.00 | 51 | 1004.7 |
| 20260509231922 | 23 | 46 | 0.0 | 3.2 | 0.00 | 0.00 | 0.00 | 51 | 1004.7 |
| 20260509231418 | 23 | 173 | 0.0 | 1.6 | 0.00 | 0.00 | 0.00 | 51 | 1004.7 |
| 20260509230918 | 24 | 223 | 0.0 | 1.6 | 0.00 | 0.00 | 0.00 | 51 | 1004.7 |
| 20260509230416 | 24 | 164 | 0.0 | 4.8 | 0.00 | 0.00 | 0.00 | 51 | 1004.7 |
| 20260509225919 | 24 | 146 | 0.0 | 4.8 | 0.00 | 0.00 | 0.00 | 50 | 1004.7 |
| 20260509225421 | 24 | 226 | 0.0 | 1.6 | 0.00 | 0.00 | 0.00 | 52 | 1004.6 |
| 20260509224915 | 24 | 229 | 1.6 | 6.4 | 0.00 | 0.00 | 0.00 | 51 | 1004.5 |
| 20260509224413 | 24 | 226 | 1.6 | 6.4 | 0.00 | 0.00 | 0.00 | 51 | 1004.5 |
| 20260509223914 | 25 | 39 | 0.0 | 6.4 | 0.00 | 0.00 | 0.00 | 51 | 1004.6 |
| 20260509223412 | 25 | 69 | 0.0 | 6.4 | 0.00 | 0.00 | 0.00 | 49 | 1004.5 |
| 20260509223139 | 25 | 35 | 0.0 | 3.2 | 0.00 | 0.00 | 0.00 | 49 | 1004.5 |
| 20260509222630 | 25 | 212 | 0.0 | 6.4 | 0.00 | 0.00 | 0.00 | 50 | 1004.5 |
| 20260509221908 | 25 | 112 | 0.0 | 6.4 | 0.00 | 0.00 | 0.00 | 51 | 1004.6 |
| 20260509221409 | 25 | 197 | 0.0 | 3.2 | 0.00 | 0.00 | 0.00 | 51 | 1004.7 |
| 20260509221132 | 25 | 78 | 1.6 | 4.8 | 0.00 | 0.00 | 0.00 | 51 | 1004.6 |
| 20260509220410 | 25 | 326 | 1.6 | 8.0 | 0.00 | 0.00 | 0.00 | 50 | 1004.6 |
| 20260509215911 | 25 | 264 | 0.0 | 8.0 | 0.00 | 0.00 | 0.00 | 51 | 1004.6 |
| 20260509215410 | 25 | 141 | 0.0 | 0.0 | 0.00 | 0.00 | 0.00 | 51 | 1004.5 |
| 20260509215131 | 24 | 172 | 0.0 | 1.6 | 0.00 | 0.00 | 0.00 | 52 | 1004.6 |
| 20260509214409 | 24 | 48 | 0.0 | 1.6 | 0.00 | 0.00 | 0.00 | 51 | 1004.5 |
| 20260509213906 | 25 | 283 | 0.0 | 1.6 | 0.00 | 0.00 | 0.00 | 51 | 1004.4 |
| 20260509213629 | 25 | 51 | 0.0 | 3.2 | 0.00 | 0.00 | 0.00 | 50 | 1004.4 |
| 20260509213128 | 25 | 133 | 0.0 | 3.2 | 0.00 | 0.00 | 0.00 | 49 | 1004.4 |
| 20260509212404 | 25 | 214 | 1.6 | 6.4 | 0.00 | 0.00 | 0.00 | 49 | 1004.5 |
| 20260509212125 | 25 | 196 | 1.6 | 6.4 | 0.00 | 0.00 | 0.00 | 47 | 1004.3 |
| 20260509211353 | 26 | 161 | 0.0 | 3.2 | 0.00 | 0.00 | 0.00 | 47 | 1004.4 |
| 20260509210850 | 26 | 21 | 0.0 | 3.2 | 0.00 | 0.00 | 0.00 | 48 | 1004.3 |
| 20260509210348 | 25 | 150 | 0.0 | 0.0 | 0.00 | 0.00 | 0.00 | 50 | 1004.4 |
| 20260509205851 | 25 | 75 | 0.0 | 0.0 | 0.00 | 0.00 | 0.00 | 48 | 1004.4 |
| 20260509205348 | 25 | 154 | 0.0 | 3.2 | 0.00 | 0.00 | 0.00 | 48 | 1004.4 |
| 20260509204851 | 26 | 174 | 1.6 | 4.8 | 0.00 | 0.00 | 0.00 | 47 | 1004.3 |
| 20260509204350 | 26 | 61 | 0.0 | 4.8 | 0.00 | 0.00 | 0.00 | 48 | 1004.3 |
| 20260509203849 | 26 | 150 | 0.0 | 1.6 | 0.00 | 0.00 | 0.00 | 45 | 1004.2 |
| 20260509203348 | 27 | 199 | 0.0 | 6.4 | 0.00 | 0.00 | 0.00 | 45 | 1004.0 |
| 20260509203111 | 27 | 67 | 0.0 | 6.4 | 0.00 | 0.00 | 0.00 | 45 | 1004.0 |
| 20260509202346 | 27 | 145 | 0.0 | 6.4 | 0.00 | 0.00 | 0.00 | 47 | 1004.0 |
| 20260509201846 | 26 | 155 | 1.6 | 6.4 | 0.00 | 0.00 | 0.00 | 47 | 1004.1 |
| 20260509201345 | 26 | 113 | 1.6 | 8.0 | 0.00 | 0.00 | 0.00 | 46 | 1004.3 |
| 20260509200845 | 26 | 207 | 1.6 | 9.7 | 0.00 | 0.00 | 0.00 | 47 | 1004.3 |
| 20260509200346 | 26 | 229 | 1.6 | 9.7 | 0.00 | 0.00 | 0.00 | 46 | 1004.3 |
| 20260509195845 | 26 | 203 | 1.6 | 6.4 | 0.00 | 0.00 | 0.00 | 47 | 1004.4 |
| 20260509195827 | 26 | 302 | 1.6 | 6.4 | 0.00 | 0.00 | 0.00 | 49 | 1004.5 |
| 20260509194845 | 25 | 148 | 0.0 | 3.2 | 0.00 | 0.00 | 0.00 | 50 | 1004.7 |
| 20260509194345 | 24 | 152 | 0.0 | 3.2 | 0.00 | 0.00 | 0.00 | 49 | 1004.7 |
| 20260509193846 | 24 | 227 | 1.6 | 6.4 | 0.00 | 0.00 | 0.00 | 49 | 1004.8 |
| 20260509193604 | 25 | 145 | 1.6 | 6.4 | 0.00 | 0.00 | 0.00 | 47 | 1004.8 |
| 20260509192844 | 25 | 64 | 1.6 | 9.7 | 0.00 | 0.00 | 0.00 | 47 | 1004.8 |
| 20260509192611 | 26 | 52 | 1.6 | 9.7 | 0.00 | 0.00 | 0.00 | 46 | 1004.8 |
| 20260509191845 | 26 | 165 | 1.6 | 9.7 | 0.00 | 0.00 | 0.00 | 46 | 1004.8 |
| 20260509191342 | 25 | 157 | 1.6 | 11.3 | 0.00 | 0.00 | 0.00 | 46 | 1004.9 |
| 20260509190841 | 25 | 219 | 1.6 | 8.0 | 0.00 | 0.00 | 0.00 | 47 | 1005.1 |
| 20260509190339 | 26 | 30 | 0.0 | 8.0 | 0.00 | 0.00 | 0.00 | 45 | 1005.2 |
| 20260509190105 | 26 | 203 | 0.0 | 3.2 | 0.00 | 0.00 | 0.00 | 47 | 1005.3 |
| 20260509185336 | 26 | 162 | 0.0 | 4.8 | 0.00 | 0.00 | 0.00 | 49 | 1005.3 |
| 20260509184836 | 25 | 176 | 1.6 | 4.8 | 0.00 | 0.00 | 0.00 | 48 | 1005.3 |
| 20260509184334 | 25 | 263 | 0.0 | 4.8 | 0.00 | 0.00 | 0.00 | 49 | 1005.3 |
| 20260509183833 | 25 | 17 | 1.6 | 11.3 | 0.00 | 0.00 | 0.00 | 49 | 1005.4 |
| 20260509183332 | 25 | 40 | 1.6 | 11.3 | 0.00 | 0.00 | 0.00 | 50 | 1005.5 |
| 20260509182831 | 24 | 3 | 1.6 | 6.4 | 0.00 | 0.00 | 0.00 | 50 | 1005.6 |
| 20260509182325 | 24 | 175 | 1.6 | 6.4 | 0.00 | 0.00 | 0.00 | 48 | 1005.7 |
| 20260509181819 | 25 | 230 | 1.6 | 9.7 | 0.00 | 0.00 | 0.00 | 48 | 1005.7 |
| 20260509181804 | 25 | 2 | 1.6 | 9.7 | 0.00 | 0.00 | 0.00 | 46 | 1005.9 |
| 20260509180813 | 26 | 200 | 1.6 | 11.3 | 0.00 | 0.00 | 0.00 | 45 | 1005.9 |
| 20260509180314 | 26 | 20 | 1.6 | 11.3 | 0.00 | 0.00 | 0.00 | 45 | 1005.9 |
| 20260509175812 | 26 | 13 | 1.6 | 8.0 | 0.00 | 0.00 | 0.00 | 45 | 1005.9 |
| 20260509175313 | 26 | 134 | 1.6 | 6.4 | 0.00 | 0.00 | 0.00 | 47 | 1005.9 |
| 20260509174812 | 26 | 208 | 1.6 | 8.0 | 0.00 | 0.00 | 0.00 | 46 | 1006.0 |
| 20260509174312 | 26 | 54 | 1.6 | 9.7 | 0.00 | 0.00 | 0.00 | 46 | 1006.0 |
| 20260509173814 | 26 | 345 | 1.6 | 9.7 | 0.00 | 0.00 | 0.00 | 45 | 1006.0 |
| 20260509173312 | 26 | 203 | 1.6 | 8.0 | 0.00 | 0.00 | 0.00 | 47 | 1005.8 |
| 20260509173033 | 26 | 278 | 1.6 | 4.8 | 0.00 | 0.00 | 0.00 | 48 | 1005.9 |
| 20260509172528 | 25 | 45 | 1.6 | 4.8 | 0.00 | 0.00 | 0.00 | 49 | 1006.1 |
| 20260509171811 | 25 | 297 | 1.6 | 3.2 | 0.00 | 0.00 | 0.00 | 49 | 1006.1 |
| 20260509171310 | 25 | 154 | 1.6 | 4.8 | 0.00 | 0.00 | 0.00 | 49 | 1006.2 |
| 20260509170810 | 25 | 57 | 1.6 | 6.4 | 0.00 | 0.00 | 0.00 | 49 | 1006.3 |
| 20260509170308 | 25 | 240 | 1.6 | 6.4 | 0.00 | 0.00 | 0.00 | 50 | 1006.5 |
| 20260509165809 | 25 | 225 | 1.6 | 4.8 | 0.00 | 0.00 | 0.00 | 50 | 1006.5 |
| 20260509165311 | 25 | 350 | 1.6 | 6.4 | 0.00 | 0.00 | 0.00 | 49 | 1006.6 |
| 20260509165024 | 24 | 214 | 1.6 | 9.7 | 0.00 | 0.00 | 0.00 | 51 | 1006.7 |
| 20260509164259 | 24 | 120 | 1.6 | 9.7 | 0.00 | 0.00 | 0.00 | 50 | 1006.9 |
| 20260509163754 | 24 | 117 | 1.6 | 6.4 | 0.00 | 0.00 | 0.00 | 50 | 1006.9 |
| 20260509163248 | 24 | 145 | 1.6 | 8.0 | 0.00 | 0.00 | 0.00 | 51 | 1006.8 |
| 20260509162742 | 23 | 90 | 3.2 | 8.0 | 0.00 | 0.00 | 0.00 | 52 | 1006.7 |
| 20260509162236 | 23 | 4 | 1.6 | 8.0 | 0.00 | 0.00 | 0.00 | 52 | 1006.7 |
| 20260509161730 | 23 | 68 | 1.6 | 6.4 | 0.00 | 0.00 | 0.00 | 53 | 1006.8 |
| 20260509161224 | 22 | 162 | 1.6 | 6.4 | 0.00 | 0.00 | 0.00 | 52 | 1006.8 |
| 20260509160945 | 22 | 334 | 1.6 | 9.7 | 0.00 | 0.00 | 0.00 | 53 | 1007.0 |
| 20260509160211 | 22 | 205 | 1.6 | 9.7 | 0.00 | 0.00 | 0.00 | 53 | 1007.1 |
| 20260509155706 | 22 | 31 | 1.6 | 8.0 | 0.00 | 0.00 | 0.00 | 53 | 1007.0 |
| 20260509155200 | 22 | 168 | 1.6 | 8.0 | 0.00 | 0.00 | 0.00 | 51 | 1007.1 |
| 20260509154654 | 22 | 169 | 1.6 | 4.8 | 0.00 | 0.00 | 0.00 | 52 | 1007.2 |
| 20260509154148 | 22 | 197 | 1.6 | 6.4 | 0.00 | 0.00 | 0.00 | 54 | 1007.3 |
| 20260509153641 | 22 | 136 | 1.6 | 6.4 | 0.00 | 0.00 | 0.00 | 55 | 1007.3 |
| 20260509153357 | 21 | 155 | 0.0 | 4.8 | 0.00 | 0.00 | 0.00 | 56 | 1007.3 |
| 20260509152630 | 21 | 217 | 1.6 | 9.7 | 0.00 | 0.00 | 0.00 | 60 | 1007.3 |
| 20260509152124 | 21 | 153 | 1.6 | 9.7 | 0.00 | 0.00 | 0.00 | 59 | 1007.3 |
| 20260509151618 | 21 | 215 | 1.6 | 6.4 | 0.00 | 0.00 | 0.00 | 59 | 1007.6 |
| 20260509151112 | 20 | 335 | 1.6 | 4.8 | 0.00 | 0.00 | 0.00 | 60 | 1007.6 |
| 20260509150607 | 20 | 58 | 1.6 | 6.4 | 0.00 | 0.00 | 0.00 | 60 | 1007.6 |
| 20260509145554 | 20 | 230 | 0.0 | 4.8 | 0.00 | 0.00 | 0.00 | 62 | 1007.7 |
| 20260509145047 | 20 | 52 | 0.0 | 3.2 | 0.00 | 0.00 | 0.00 | 62 | 1007.8 |
| 20260509144541 | 20 | 205 | 0.0 | 4.8 | 0.00 | 0.00 | 0.00 | 65 | 1007.9 |
| 20260509144036 | 20 | 275 | 0.0 | 4.8 | 0.00 | 0.00 | 0.00 | 64 | 1008.1 |
| 20260509143529 | 19 | 355 | 0.0 | 4.8 | 0.00 | 0.00 | 0.00 | 66 | 1008.3 |
| 20260509143024 | 19 | 22 | 1.6 | 8.0 | 0.00 | 0.00 | 0.00 | 66 | 1008.3 |
| 20260509142518 | 19 | 78 | 0.0 | 8.0 | 0.00 | 0.00 | 0.00 | 66 | 1008.4 |
| 20260509142011 | 19 | 330 | 0.0 | 4.8 | 0.00 | 0.00 | 0.00 | 67 | 1008.4 |
| 20260509141505 | 18 | 221 | 0.0 | 4.8 | 0.00 | 0.00 | 0.00 | 67 | 1008.5 |
| 20260509141000 | 18 | 195 | 0.0 | 4.8 | 0.00 | 0.00 | 0.00 | 68 | 1008.5 |
| 20260509140710 | 18 | 22 | 0.0 | 4.8 | 0.00 | 0.00 | 0.00 | 69 | 1008.4 |
| 20260509140210 | 18 | 221 | 0.0 | 6.4 | 0.00 | 0.00 | 0.00 | 70 | 1008.3 |
| 20260509135707 | 18 | 353 | 0.0 | 6.4 | 0.00 | 0.00 | 0.00 | 70 | 1008.4 |
| 20260509135152 | 18 | 288 | 0.0 | 1.6 | 0.00 | 0.00 | 0.00 | 72 | 1008.4 |
| 20260509134430 | 17 | 28 | 0.0 | 1.6 | 0.00 | 0.00 | 0.00 | 73 | 1008.5 |
| 20260509133923 | 17 | 28 | 1.6 | 8.0 | 0.00 | 0.00 | 0.00 | 73 | 1008.7 |
| 20260509133418 | 17 | 91 | 1.6 | 8.0 | 0.00 | 0.00 | 0.00 | 73 | 1008.9 |
| 20260509132911 | 17 | 345 | 0.0 | 4.8 | 0.00 | 0.00 | 0.00 | 74 | 1008.9 |
| 20260509132405 | 17 | 151 | 0.0 | 4.8 | 0.00 | 0.00 | 0.00 | 76 | 1008.9 |
| 20260509131900 | 17 | 229 | 0.0 | 0.0 | 0.00 | 0.00 | 0.00 | 77 | 1009.0 |
| 20260509131354 | 16 | 178 | 0.0 | 0.0 | 0.00 | 0.00 | 0.00 | 78 | 1008.9 |
| 20260509130847 | 16 | 174 | 0.0 | 3.2 | 0.00 | 0.00 | 0.00 | 79 | 1008.8 |
| 20260509130342 | 16 | 153 | 0.0 | 3.2 | 0.00 | 0.00 | 0.00 | 79 | 1008.8 |
| 20260509125330 | 15 | 147 | 0.0 | 1.6 | 0.00 | 0.00 | 0.00 | 81 | 1008.6 |
| 20260509124824 | 15 | 146 | 0.0 | 1.6 | 0.00 | 0.00 | 0.00 | 81 | 1008.8 |
| 20260509124318 | 15 | 133 | 0.0 | 1.6 | 0.00 | 0.00 | 0.00 | 82 | 1008.8 |
| 20260509123812 | 15 | 96 | 0.0 | 1.6 | 0.00 | 0.00 | 0.00 | 83 | 1008.7 |
| 20260509123306 | 14 | 105 | 0.0 | 1.6 | 0.00 | 0.00 | 0.00 | 83 | 1008.8 |
| 20260509122800 | 14 | 28 | 0.0 | 1.6 | 0.00 | 0.00 | 0.00 | 84 | 1008.9 |
| 20260509122253 | 14 | 158 | 0.0 | 0.0 | 0.00 | 0.00 | 0.00 | 84 | 1008.9 |
| 20260509121747 | 13 | 158 | 0.0 | 1.6 | 0.00 | 0.00 | 0.00 | 85 | 1009.0 |
| 20260509121500 | 13 | 161 | 0.0 | 1.6 | 0.00 | 0.00 | 0.00 | 85 | 1009.1 |
| 20260509120736 | 13 | 80 | 0.0 | 1.6 | 0.00 | 0.00 | 0.00 | 85 | 1009.1 |
| 20260509120229 | 13 | 44 | 0.0 | 3.2 | 0.00 | 0.00 | 0.00 | 86 | 1009.0 |
| 20260509115723 | 13 | 75 | 0.0 | 3.2 | 0.00 | 0.00 | 0.00 | 87 | 1009.0 |
| 20260509115218 | 12 | 39 | 0.0 | 3.2 | 0.00 | 0.00 | 0.00 | 87 | 1008.9 |
| 20260509115157 | 12 | 44 | 0.0 | 0.0 | 0.00 | 0.00 | 0.00 | 88 | 1008.8 |
| 20260509114209 | 12 | 44 | 0.0 | 0.0 | 0.00 | 0.00 | 0.00 | 88 | 1008.8 |
| 20260509113706 | 12 | 42 | 0.0 | 1.6 | 0.00 | 0.00 | 0.00 | 88 | 1008.7 |
| 20260509113205 | 12 | 42 | 0.0 | 1.6 | 0.00 | 0.00 | 0.00 | 88 | 1008.8 |
| 20260509112925 | 12 | 42 | 0.0 | 0.0 | 0.00 | 0.03 | 0.00 | 88 | 1008.7 |
| 20260509112201 | 11 | 42 | 0.0 | 0.0 | 0.00 | 0.03 | 0.00 | 88 | 1008.7 |
| 20260509111659 | 11 | 34 | 0.0 | 0.0 | 0.00 | 0.03 | 0.00 | 88 | 1008.7 |
| 20260509111157 | 11 | 22 | 0.0 | 1.6 | 0.00 | 0.03 | 0.00 | 88 | 1008.8 |
| 20260509110653 | 11 | 22 | 0.0 | 1.6 | 0.00 | 0.03 | 0.00 | 88 | 1008.9 |
| 20260509110151 | 11 | 266 | 0.0 | 0.0 | 0.00 | 0.03 | 0.00 | 88 | 1008.8 |
| 20260509105652 | 11 | 266 | 0.0 | 0.0 | 0.00 | 0.03 | 0.00 | 88 | 1008.7 |
| 20260509105153 | 11 | 266 | 0.0 | 0.0 | 0.00 | 0.03 | 0.00 | 88 | 1008.8 |
| 20260509104651 | 11 | 266 | 0.0 | 0.0 | 0.00 | 0.03 | 0.00 | 87 | 1008.8 |
| 20260509104412 | 11 | 266 | 0.0 | 0.0 | 0.00 | 0.03 | 0.00 | 87 | 1008.8 |
| 20260509103652 | 11 | 266 | 0.0 | 0.0 | 0.00 | 0.03 | 0.00 | 87 | 1008.8 |
| 20260509103152 | 11 | 266 | 0.0 | 0.0 | 0.00 | 0.03 | 0.00 | 87 | 1008.7 |
| 20260509102921 | 11 | 266 | 0.0 | 0.0 | 0.00 | 0.03 | 0.00 | 87 | 1008.6 |
| 20260509102151 | 11 | 266 | 0.0 | 0.0 | 0.00 | 0.03 | 0.00 | 86 | 1008.5 |
| 20260509101652 | 11 | 266 | 0.0 | 0.0 | 0.00 | 0.03 | 0.00 | 86 | 1008.5 |
| 20260509101410 | 11 | 266 | 0.0 | 0.0 | 0.00 | 0.03 | 0.00 | 86 | 1008.5 |
| 20260509100923 | 11 | 266 | 0.0 | 0.0 | 0.00 | 0.03 | 0.00 | 86 | 1008.6 |
| 20260509100151 | 11 | 266 | 0.0 | 0.0 | 0.00 | 0.03 | 0.00 | 85 | 1008.7 |
| 20260509095652 | 11 | 266 | 0.0 | 0.0 | 0.00 | 0.03 | 0.00 | 85 | 1008.6 |
| 20260509095149 | 11 | 266 | 0.0 | 0.0 | 0.00 | 0.03 | 0.00 | 84 | 1008.7 |
| 20260509094647 | 11 | 266 | 0.0 | 0.0 | 0.00 | 0.03 | 0.00 | 84 | 1008.6 |
| 20260509094148 | 11 | 266 | 0.0 | 1.6 | 0.00 | 0.03 | 0.00 | 84 | 1008.7 |
| 20260509093648 | 11 | 266 | 0.0 | 1.6 | 0.00 | 0.03 | 0.00 | 84 | 1008.7 |
| 20260509093406 | 11 | 266 | 0.0 | 0.0 | 0.00 | 0.03 | 0.00 | 84 | 1008.7 |
| 20260509092648 | 11 | 266 | 0.0 | 0.0 | 0.00 | 0.03 | 0.00 | 83 | 1008.8 |
| 20260509092148 | 11 | 266 | 0.0 | 4.8 | 0.00 | 0.03 | 0.00 | 83 | 1008.8 |
| 20260509091649 | 11 | 266 | 0.0 | 4.8 | 0.00 | 0.03 | 0.00 | 83 | 1008.9 |
| 20260509091150 | 11 | 141 | 0.0 | 0.0 | 0.00 | 0.03 | 0.00 | 82 | 1008.8 |
| 20260509090642 | 11 | 141 | 0.0 | 0.0 | 0.00 | 0.03 | 0.00 | 81 | 1008.8 |
| 20260509090137 | 11 | 141 | 0.0 | 0.0 | 0.00 | 0.03 | 0.00 | 81 | 1008.8 |
| 20260509085630 | 12 | 141 | 0.0 | 0.0 | 0.00 | 0.03 | 0.00 | 81 | 1008.8 |
| 20260509085345 | 12 | 141 | 0.0 | 0.0 | 0.00 | 0.03 | 0.00 | 80 | 1008.8 |
| 20260509084839 | 12 | 141 | 0.0 | 0.0 | 0.00 | 0.03 | 0.00 | 80 | 1008.7 |
| 20260509084112 | 12 | 141 | 0.0 | 0.0 | 0.00 | 0.03 | 0.00 | 80 | 1008.7 |
| 20260509083828 | 12 | 141 | 0.0 | 0.0 | 0.00 | 0.03 | 0.00 | 80 | 1008.6 |
| 20260509083107 | 12 | 141 | 0.0 | 0.0 | 0.00 | 0.03 | 0.00 | 79 | 1008.6 |
| 20260509082607 | 12 | 141 | 0.0 | 0.0 | 0.00 | 0.03 | 0.00 | 79 | 1008.5 |
| 20260509082110 | 12 | 141 | 0.0 | 0.0 | 0.00 | 0.03 | 0.00 | 78 | 1008.4 |
| 20260509081608 | 12 | 141 | 0.0 | 0.0 | 0.00 | 0.03 | 0.00 | 78 | 1008.4 |
| 20260509081106 | 12 | 141 | 0.0 | 0.0 | 0.00 | 0.03 | 0.00 | 77 | 1008.4 |
| 20260509080603 | 12 | 141 | 0.0 | 0.0 | 0.00 | 0.03 | 0.00 | 76 | 1008.4 |
| 20260509080103 | 12 | 141 | 0.0 | 0.0 | 0.00 | 0.03 | 0.00 | 76 | 1008.4 |
| 20260509075605 | 12 | 141 | 0.0 | 0.0 | 0.00 | 0.03 | 0.00 | 75 | 1008.6 |
| 20260509075102 | 13 | 141 | 0.0 | 0.0 | 0.00 | 0.03 | 0.00 | 75 | 1008.8 |
| 20260509074559 | 13 | 141 | 0.0 | 0.0 | 0.00 | 0.03 | 0.00 | 75 | 1008.7 |
| 20260509074319 | 13 | 141 | 0.0 | 0.0 | 0.00 | 0.03 | 0.00 | 74 | 1008.7 |
| 20260509073557 | 13 | 141 | 0.0 | 0.0 | 0.00 | 0.03 | 0.00 | 74 | 1008.8 |
| 20260509073054 | 13 | 141 | 0.0 | 1.6 | 0.00 | 0.03 | 0.00 | 74 | 1008.8 |
| 20260509072555 | 13 | 141 | 0.0 | 1.6 | 0.00 | 0.03 | 0.00 | 74 | 1008.7 |
| 20260509072049 | 13 | 186 | 0.0 | 3.2 | 0.00 | 0.03 | 0.00 | 74 | 1008.8 |
| 20260509071810 | 13 | 226 | 0.0 | 3.2 | 0.00 | 0.03 | 0.00 | 74 | 1008.8 |
| 20260509071047 | 13 | 226 | 0.0 | 1.6 | 0.00 | 0.03 | 0.00 | 74 | 1008.8 |
| 20260509070544 | 13 | 226 | 0.0 | 1.6 | 0.00 | 0.03 | 0.00 | 74 | 1008.9 |
| 20260509070044 | 13 | 226 | 0.0 | 1.6 | 0.00 | 0.03 | 0.00 | 74 | 1009.0 |
| 20260509065537 | 13 | 233 | 0.0 | 1.6 | 0.00 | 0.03 | 0.00 | 74 | 1009.1 |
| 20260509065032 | 13 | 233 | 0.0 | 3.2 | 0.00 | 0.03 | 0.00 | 74 | 1009.2 |
| 20260509064525 | 13 | 228 | 0.0 | 3.2 | 0.00 | 0.03 | 0.00 | 74 | 1009.3 |
| 20260509064247 | 13 | 100 | 0.0 | 1.6 | 0.00 | 0.03 | 0.00 | 74 | 1009.4 |
| 20260509063514 | 13 | 79 | 0.0 | 3.2 | 0.00 | 0.03 | 0.00 | 73 | 1009.5 |
| 20260509063008 | 13 | 91 | 0.0 | 3.2 | 0.00 | 0.03 | 0.00 | 73 | 1009.6 |
| 20260509062502 | 13 | 145 | 0.0 | 0.0 | 0.00 | 0.03 | 0.00 | 72 | 1009.7 |
| 20260509061956 | 13 | 145 | 0.0 | 0.0 | 0.00 | 0.03 | 0.00 | 72 | 1009.8 |
| 20260509061450 | 13 | 145 | 0.0 | 0.0 | 0.00 | 0.03 | 0.00 | 71 | 1009.9 |
| 20260509060944 | 13 | 144 | 0.0 | 0.0 | 0.00 | 0.03 | 0.00 | 70 | 1009.9 |
| 20260509060701 | 13 | 144 | 0.0 | 0.0 | 0.00 | 0.03 | 0.00 | 70 | 1009.9 |
| 20260509060427 | 13 | 145 | 0.0 | 0.0 | 0.00 | 0.03 | 0.00 | 69 | 1010.0 |
| 20260509055426 | 13 | 144 | 0.0 | 0.0 | 0.00 | 0.03 | 0.00 | 68 | 1009.9 |
| 20260509054920 | 13 | 144 | 0.0 | 1.6 | 0.00 | 0.03 | 0.00 | 67 | 1009.9 |
| 20260509054414 | 13 | 144 | 0.0 | 1.6 | 0.00 | 0.03 | 0.00 | 67 | 1009.9 |
| 20260509053908 | 13 | 145 | 0.0 | 1.6 | 0.00 | 0.03 | 0.00 | 66 | 1009.9 |
| 20260509053624 | 13 | 144 | 0.0 | 1.6 | 0.00 | 0.03 | 0.00 | 66 | 1009.9 |
| 20260509053119 | 13 | 144 | 0.0 | 1.6 | 0.00 | 0.03 | 0.00 | 65 | 1009.8 |
| 20260509052350 | 13 | 144 | 0.0 | 1.6 | 0.00 | 0.03 | 0.00 | 65 | 1009.7 |
| 20260509051843 | 13 | 139 | 0.0 | 1.6 | 0.00 | 0.03 | 0.00 | 64 | 1009.7 |
| 20260509051338 | 13 | 139 | 0.0 | 1.6 | 0.00 | 0.03 | 0.00 | 64 | 1009.7 |
| 20260509050832 | 13 | 129 | 0.0 | 1.6 | 0.00 | 0.03 | 0.00 | 64 | 1009.7 |
| 20260509050326 | 13 | 129 | 0.0 | 1.6 | 0.00 | 0.03 | 0.00 | 64 | 1009.7 |
| 20260509050046 | 13 | 129 | 0.0 | 0.0 | 0.00 | 0.03 | 0.00 | 64 | 1009.7 |
| 20260509045314 | 13 | 129 | 0.0 | 0.0 | 0.00 | 0.03 | 0.00 | 63 | 1009.6 |
| 20260509044808 | 13 | 129 | 0.0 | 0.0 | 0.00 | 0.03 | 0.00 | 63 | 1009.5 |
| 20260509044258 | 13 | 129 | 0.0 | 0.0 | 0.00 | 0.03 | 0.00 | 63 | 1009.5 |
| 20260509043752 | 14 | 129 | 0.0 | 0.0 | 0.00 | 0.03 | 0.00 | 63 | 1009.5 |
| 20260509043735 | 14 | 129 | 0.0 | 0.0 | 0.00 | 0.03 | 0.00 | 63 | 1009.4 |
| 20260509042740 | 14 | 129 | 0.0 | 0.0 | 0.00 | 0.03 | 0.00 | 61 | 1009.6 |
| 20260509042234 | 15 | 129 | 0.0 | 0.0 | 0.00 | 0.03 | 0.00 | 60 | 1009.5 |
| 20260509041728 | 15 | 129 | 0.0 | 0.0 | 0.00 | 0.03 | 0.00 | 59 | 1009.5 |
| 20260509041224 | 15 | 129 | 0.0 | 0.0 | 0.00 | 0.03 | 0.00 | 59 | 1009.6 |
| 20260509040724 | 15 | 129 | 0.0 | 0.0 | 0.00 | 0.03 | 0.00 | 58 | 1009.7 |
| 20260509040224 | 15 | 129 | 0.0 | 1.6 | 0.00 | 0.03 | 0.00 | 58 | 1009.6 |
| 20260509035942 | 15 | 129 | 0.0 | 1.6 | 0.00 | 0.03 | 0.03 | 57 | 1009.6 |
| 20260509035222 | 15 | 129 | 0.0 | 0.0 | 0.00 | 0.03 | 0.03 | 58 | 1009.7 |
| 20260509034723 | 15 | 129 | 0.0 | 1.6 | 0.00 | 0.03 | 0.03 | 57 | 1009.8 |
| 20260509034221 | 15 | 129 | 0.0 | 1.6 | 0.00 | 0.03 | 0.03 | 56 | 1009.8 |
| 20260509033722 | 15 | 129 | 0.0 | 1.6 | 0.00 | 0.03 | 0.03 | 56 | 1009.8 |
| 20260509033220 | 15 | 129 | 0.0 | 1.6 | 0.00 | 0.03 | 0.03 | 56 | 1010.0 |
| 20260509032718 | 15 | 129 | 0.0 | 1.6 | 0.00 | 0.03 | 0.03 | 56 | 1010.0 |
| 20260509032219 | 15 | 129 | 0.0 | 1.6 | 0.00 | 0.03 | 0.03 | 55 | 1010.0 |
| 20260509031719 | 15 | 52 | 0.0 | 1.6 | 0.00 | 0.03 | 0.03 | 55 | 1009.9 |
| 20260509031215 | 15 | 150 | 0.0 | 0.0 | 0.00 | 0.03 | 0.03 | 55 | 1010.0 |
| 20260509030715 | 15 | 150 | 0.0 | 1.6 | 0.00 | 0.03 | 0.03 | 55 | 1009.9 |
| 20260509030216 | 15 | 150 | 0.0 | 1.6 | 0.00 | 0.03 | 0.03 | 54 | 1009.8 |
| 20260509025714 | 15 | 150 | 0.0 | 1.6 | 0.00 | 0.03 | 0.03 | 54 | 1009.8 |
| 20260509025212 | 15 | 217 | 0.0 | 1.6 | 0.00 | 0.03 | 0.03 | 53 | 1010.0 |
| 20260509024934 | 15 | 219 | 0.0 | 0.0 | 0.00 | 0.03 | 0.03 | 53 | 1009.9 |
| 20260509024208 | 15 | 219 | 0.0 | 1.6 | 0.00 | 0.03 | 0.03 | 53 | 1009.9 |
| 20260509023928 | 15 | 219 | 0.0 | 1.6 | 0.00 | 0.03 | 0.03 | 52 | 1010.0 |
| 20260509023204 | 15 | 219 | 0.0 | 1.6 | 0.00 | 0.03 | 0.03 | 52 | 1009.9 |
| 20260509022659 | 15 | 219 | 0.0 | 1.6 | 0.00 | 0.03 | 0.03 | 51 | 1009.9 |
| 20260509022158 | 16 | 219 | 0.0 | 1.6 | 0.00 | 0.03 | 0.03 | 50 | 1009.9 |
| 20260509022152 | 15 | 219 | 0.0 | 1.6 | 0.00 | 0.03 | 0.03 | 50 | 1009.9 |
| 20260509021359 | 16 | 141 | 0.0 | 1.6 | 0.00 | 0.03 | 0.03 | 50 | 1010.0 |
| 20260509020634 | 16 | 141 | 0.0 | 0.0 | 0.00 | 0.03 | 0.03 | 50 | 1010.0 |
| 20260509020128 | 16 | 57 | 0.0 | 0.0 | 0.00 | 0.03 | 0.03 | 49 | 1009.9 |
| 20260509015621 | 16 | 56 | 0.0 | 0.0 | 0.00 | 0.03 | 0.03 | 49 | 1009.7 |
| 20260509015113 | 16 | 56 | 0.0 | 0.0 | 0.00 | 0.03 | 0.03 | 48 | 1009.7 |
| 20260509014612 | 16 | 57 | 0.0 | 0.0 | 0.00 | 0.03 | 0.03 | 48 | 1009.8 |
| 20260509014058 | 16 | 56 | 0.0 | 0.0 | 0.00 | 0.03 | 0.03 | 47 | 1009.8 |
| 20260509013552 | 16 | 56 | 0.0 | 1.6 | 0.00 | 0.03 | 0.03 | 47 | 1009.7 |
| 20260509013320 | 16 | 56 | 0.0 | 1.6 | 0.00 | 0.03 | 0.03 | 47 | 1009.6 |
| 20260509012541 | 16 | 44 | 0.0 | 0.0 | 0.00 | 0.03 | 0.03 | 47 | 1009.6 |
| 20260509012034 | 16 | 44 | 0.0 | 0.0 | 0.00 | 0.03 | 0.03 | 47 | 1009.5 |
| 20260509011528 | 16 | 44 | 0.0 | 0.0 | 0.00 | 0.03 | 0.03 | 47 | 1009.4 |
| 20260509011220 | 17 | 44 | 0.0 | 0.0 | 0.00 | 0.03 | 0.03 | 46 | 1009.4 |
| 20260509011108 | 16 | 44 | 0.0 | 0.0 | 0.00 | 0.03 | 0.03 | 47 | 1009.5 |
| 20260509010010 | 17 | 44 | 0.0 | 0.0 | 0.00 | 0.03 | 0.03 | 46 | 1009.4 |
| 20260509005728 | 17 | 44 | 0.0 | 1.6 | 0.00 | 0.03 | 0.03 | 46 | 1009.5 |
| 20260509004957 | 17 | 44 | 0.0 | 1.6 | 0.00 | 0.03 | 0.03 | 45 | 1009.4 |
| 20260509004451 | 17 | 46 | 0.0 | 1.6 | 0.00 | 0.03 | 0.03 | 45 | 1009.4 |
| 20260509003946 | 17 | 46 | 0.0 | 1.6 | 0.00 | 0.03 | 0.03 | 44 | 1009.5 |
| 20260509003440 | 18 | 46 | 0.0 | 0.0 | 0.00 | 0.03 | 0.03 | 44 | 1009.4 |
| 20260509002934 | 18 | 41 | 0.0 | 1.6 | 0.00 | 0.03 | 0.03 | 44 | 1009.3 |
| 20260509002428 | 18 | 41 | 0.0 | 1.6 | 0.00 | 0.03 | 0.03 | 43 | 1009.3 |